Wind_Speed
2 1 6 9 6 3 2 4 10 16 12 9 18 22 20 32 18 24 33 38 40 39 39 40 38 40 43 46 49 50 49 48 46 45 44 43 40 39 37 35 31 27 24 20
3 8 6 3 4 6 7 9 14 12 11 7 12 26 20 19 31 31 32 35 41 47 46 43 43 39 42 46 50 52 53 52 51 49 48 46 42 40 38 35 32 29 25 22
5 1 8 4 3 5 4 7 8 13 12 8 11 19 10 9 21 28 28 38 39 37 38 38 41 42 41 45 47 53 54 56 56 54 52 49 44 41 39 39 36 32 27 23
5 4 2 3 7 7 6 12 15 11 5 6 5 16 7 11 16 5 18 27 31 31 34 35 36 37 37 41 46 50 54 58 58 58 57 55 51 48 46 42 37 31 27 25
6 2 3 4 6 5 7 1 4 3 5 6 6 6 18 5 9 12 14 23 29 24 28 32 32 33 34 35 39 44 53 59 59 60 60 58 54 49 44 39 35 31 28 26
7 7 5 5 2 6 2 2 1 2 2 8 10 10 27 6 3 6 9 16 24 22 28 32 31 29 33 33 34 38 46 56 61 62 62 61 57 52 45 40 36 33 31 28
5 4 3 2 1 4 2 3 4 3 3 7 3 9 21 7 18 7 10 27 31 37 41 43 42 39 33 36 39 39 42 51 58 64 64 62 59 52 46 42 38 35 33 31
4 5 1 2 3 5 6 4 2 7 8 14 6 12 12 3 9 16 17 22 27 34 41 46 44 43 44 31 33 39 42 45 50 59 64 63 59 53 47 43 39 34 31 27
6 5 6 19 6 5 3 1 4 8 18 13 13 18 14 17 9 21 25 32 36 32 35 37 49 49 46 41 29 30 34 40 44 49 58 62 59 55 50 43 38 33 28 26
2 12 9 3 8 7 5 5 6 3 16 22 18 22 16 16 17 22 28 39 39 35 36 39 47 51 43 42 32 24 28 34 41 43 49 58 59 55 48 42 40 34 29 29
3 4 8 13 4 9 11 10 10 10 10 15 20 11 2 19 18 24 36 42 37 34 34 37 38 44 42 37 33 25 24 29 36 41 45 52 58 55 49 44 40 34 31 30
5 5 11 20 19 18 11 4 7 5 12 16 13 19 22 19 31 45 41 41 45 42 41 36 33 33 42 35 34 29 24 25 31 34 41 47 52 53 50 46 40 35 33 31
4 3 10 7 2 2 9 17 17 15 9 17 15 14 23 38 32 33 34 42 38 44 51 37 30 26 35 37 33 31 26 25 27 32 36 42 49 52 51 46 41 37 35 32
13 5 11 12 17 15 18 20 19 18 12 17 19 29 27 30 28 24 26 29 31 32 33 39 42 38 36 36 34 32 29 24 25 29 36 39 45 50 50 45 42 39 36 33
2 6 14 16 18 19 22 22 25 21 21 18 25 24 26 20 21 30 25 28 29 31 33 35 39 37 28 30 33 37 32 27 23 25 33 38 40 46 48 46 43 40 37 34
4 14 14 19 19 20 19 23 22 20 20 17 18 19 9 18 30 27 30 29 31 34 32 34 40 45 39 31 35 37 39 31 25 25 29 34 40 43 49 48 45 41 37 34
9 8 8 13 15 12 11 15 10 20 20 17 15 18 10 19 26 30 31 32 29 31 35 40 43 42 41 38 36 40 41 38 30 29 28 33 40 44 49 48 45 43 39 35
12 9 5 6 4 6 7 16 19 16 16 15 17 7 16 22 39 32 30 28 24 36 42 44 46 44 43 40 46 44 39 40 35 32 33 34 39 45 50 49 47 44 40 37
20 4 3 3 4 13 16 6 8 14 23 13 6 18 32 34 34 30 19 24 37 41 41 43 44 42 39 41 42 40 42 40 38 36 37 37 40 45 51 52 50 46 42 40
4 5 3 4 9 11 19 15 14 6 17 2 27 26 26 29 14 19 35 39 41 39 41 41 41 40 32 39 43 44 42 40 41 38 39 37 38 44 51 52 50 46 40 36
3 3 7 10 8 10 8 8 9 8 10 32 34 30 31 17 22 45 39 40 42 40 40 42 39 39 40 40 45 47 46 42 37 36 35 37 38 45 49 51 48 43 41 36
6 4 3 3 4 9 6 9 7 16 38 33 35 33 31 36 39 42 39 35 39 39 40 42 40 37 40 39 40 46 47 36 28 29 33 37 37 43 47 50 47 42 40 36
5 7 5 7 8 12 29 30 34 29 30 35 33 38 33 37 39 38 40 39 38 41 40 38 39 36 41 39 36 47 37 24 17 23 31 34 34 41 46 49 46 44 40 36
4 8 6 6 21 20 28 34 36 28 32 36 37 34 36 32 39 39 38 37 38 40 38 39 38 35 36 37 38 37 25 18 15 23 30 34 37 42 43 45 43 42 38 33
17 13 13 17 24 27 17 15 29 32 31 34 38 34 35 34 39 37 38 35 37 40 39 36 35 34 31 30 34 35 22 14 19 29 31 36 33 39 43 41 39 35 30 25
12 9 5 7 22 19 24 26 25 30 36 34 35 42 38 28 35 36 38 34 38 39 37 34 32 31 20 26 32 25 16 10 17 21 30 36 39 41 42 40 34 25 20 19
Wind_Direction
35 9 225 214 200 145 174 228 263 269 268 290 269 272 269 275 262 254 264 270 272 270 273 271 267 256 249 244 238 236 234 233 228 226 226 227 231 234 235 235 238 242 246 250
19 246 238 151 177 225 246 272 273 286 277 234 278 276 266 254 263 256 254 258 261 268 270 270 266 259 251 246 242 237 235 232 232 232 234 232 235 235 236 236 238 240 242 245
187 258 79 140 209 222 246 242 258 263 308 268 283 281 241 245 250 259 257 260 266 267 274 277 272 266 258 247 243 241 238 235 231 232 232 231 231 233 230 231 232 234 237 240
244 289 200 228 257 208 258 233 250 267 296 280 2 296 262 261 259 252 261 255 261 274 282 285 283 280 271 260 250 243 240 236 232 231 232 230 232 230 231 233 235 234 235 239
261 268 220 225 231 156 245 256 227 234 229 308 233 247 284 356 294 278 269 281 284 287 299 303 299 295 289 276 260 250 242 239 234 232 232 231 230 234 237 235 232 231 233 236
258 294 254 248 279 197 352 352 27 59 166 255 227 201 277 287 153 330 296 321 321 331 347 348 342 327 305 289 270 255 244 241 235 231 229 229 230 231 230 229 228 228 231 232
319 262 291 298 339 16 120 30 321 277 195 256 325 209 250 282 317 337 335 357 352 355 358 358 357 348 325 299 280 262 247 241 236 230 228 228 229 230 231 230 229 227 228 229
348 330 351 42 41 260 282 171 211 282 284 291 276 253 256 259 328 38 23 356 353 350 346 344 342 345 345 323 296 273 255 244 238 233 228 227 227 228 228 229 229 231 233 236
331 262 315 311 355 323 3 5 333 287 283 274 264 264 281 277 359 3 352 351 344 338 337 336 335 339 342 339 321 288 265 249 240 235 229 227 225 225 225 225 227 229 229 227
331 296 246 27 342 356 47 329 320 274 282 277 269 274 276 311 350 344 339 331 336 336 335 335 338 334 338 340 331 300 272 257 249 238 231 226 224 224 224 223 224 222 221 220
317 226 276 335 326 312 305 291 291 303 270 279 285 275 117 328 318 320 320 323 329 325 328 327 327 332 329 337 341 321 285 262 249 243 235 227 223 221 221 221 220 219 219 218
325 288 288 293 277 271 270 25 355 324 304 289 270 271 282 295 314 313 310 317 319 314 322 323 322 328 329 331 339 332 303 276 256 246 239 233 225 220 219 218 217 216 215 215
332 298 313 296 57 55 350 316 309 300 277 274 285 292 309 303 303 308 322 318 318 325 330 331 330 332 330 335 334 336 317 291 267 249 240 234 228 219 217 215 214 213 211 212
308 242 230 260 284 313 303 299 295 274 278 277 274 284 297 299 308 331 322 317 317 316 319 319 328 336 338 335 330 334 329 305 282 259 243 235 229 221 216 214 212 211 209 210
251 259 276 279 288 289 286 294 283 287 274 267 277 281 286 313 311 300 299 304 310 308 312 313 322 321 327 325 335 333 330 317 295 272 252 241 232 223 216 214 211 209 208 209
247 274 291 289 284 279 290 277 278 273 278 286 281 292 324 296 294 299 306 317 317 312 311 312 316 317 321 325 328 327 329 320 301 284 263 247 235 223 215 212 209 206 207 207
262 269 276 279 281 298 278 265 276 301 295 287 300 304 319 314 306 311 311 305 314 321 319 311 310 308 313 317 325 322 324 327 302 281 266 248 237 225 214 210 207 205 204 204
254 252 263 283 304 264 258 289 295 283 284 301 299 310 303 308 305 313 308 300 308 317 313 310 309 307 313 314 325 319 317 320 306 278 261 247 236 227 215 207 205 204 203 203
210 196 252 251 271 286 281 275 317 319 298 306 340 320 322 321 318 310 316 315 310 303 305 305 305 306 306 311 320 310 313 314 303 272 256 243 231 224 215 206 203 202 200 201
120 200 213 284 280 285 276 302 323 356 291 17 342 314 308 314 312 299 318 315 312 309 308 312 316 316 306 318 313 311 311 306 290 272 255 242 231 223 215 205 202 200 201 202
289 278 242 273 267 266 263 270 319 293 293 320 311 304 302 300 292 296 306 309 316 317 321 326 326 322 319 318 317 311 313 301 289 258 250 238 230 222 213 204 200 198 197 199
260 268 258 248 249 276 219 321 332 289 298 301 300 301 302 299 300 301 308 306 316 320 325 330 322 318 319 315 320 318 312 301 278 248 240 230 225 218 209 202 197 196 195 194
250 203 241 201 237 263 281 296 297 301 298 303 304 304 302 300 301 305 309 311 314 317 317 324 319 310 322 321 326 323 310 293 264 238 228 220 218 213 204 197 193 191 191 193
250 242 255 295 268 265 288 292 297 305 304 310 312 312 313 302 304 308 311 312 313 315 313 320 320 313 323 327 335 329 312 304 258 233 223 216 204 202 196 192 190 187 187 191
274 291 249 258 275 294 290 286 297 309 310 313 311 305 306 308 306 308 307 309 312 313 316 321 325 319 322 329 350 341 336 278 228 211 205 199 190 194 185 183 183 186 190 200
246 249 242 272 290 288 288 307 312 305 304 305 310 309 307 302 303 310 308 307 309 313 316 316 323 316 321 341 2 357 334 250 221 191 188 182 176 178 172 171 169 176 184 186
Height
1542 1544 1544 1541 1542 1543 1545 1547 1544 1530 1525 1526 1517 1506 1503 1496 1498 1496 1493 1489 1486 1485 1485 1486 1487 1489 1492 1495 1498 1501 1505 1508 1512 1514 1517 1519 1522 1525 1528 1531 1534 1536 1538 1539
1546 1543 1533 1537 1540 1542 1541 1543 1538 1527 1520 1523 1513 1490 1492 1490 1479 1480 1480 1477 1474 1472 1473 1474 1476 1478 1479 1481 1484 1489 1493 1498 1502 1505 1508 1512 1516 1519 1522 1526 1528 1530 1532 1534
1545 1535 1534 1536 1538 1540 1541 1541 1534 1529 1521 1514 1510 1474 1471 1471 1472 1471 1470 1467 1464 1464 1463 1463 1464 1467 1470 1470 1473 1476 1480 1484 1490 1496 1500 1504 1509 1513 1515 1517 1520 1522 1525 1528
1542 1535 1534 1537 1537 1535 1541 1525 1525 1527 1532 1524 1513 1491 1468 1467 1463 1466 1463 1458 1457 1460 1459 1458 1457 1456 1458 1458 1461 1464 1467 1471 1477 1482 1487 1491 1495 1499 1503 1508 1513 1517 1520 1522
1535 1532 1533 1535 1529 1529 1526 1523 1525 1526 1528 1526 1514 1522 1436 1456 1464 1460 1456 1457 1456 1457 1456 1455 1453 1451 1448 1448 1449 1452 1455 1458 1465 1468 1474 1480 1486 1492 1498 1504 1508 1511 1514 1516
1533 1531 1529 1524 1523 1523 1522 1523 1525 1530 1528 1523 1501 1510 1447 1457 1459 1460 1456 1452 1454 1460 1459 1456 1452 1449 1446 1443 1441 1441 1442 1443 1448 1454 1461 1467 1474 1482 1490 1496 1500 1504 1507 1509
1539 1529 1525 1523 1524 1523 1524 1529 1534 1526 1529 1512 1501 1499 1458 1458 1455 1461 1460 1461 1458 1454 1450 1449 1447 1444 1439 1437 1434 1430 1430 1431 1434 1440 1448 1456 1463 1473 1480 1487 1492 1496 1499 1502
1548 1536 1526 1526 1529 1528 1525 1527 1533 1532 1515 1502 1500 1491 1462 1458 1461 1465 1467 1467 1464 1459 1454 1451 1447 1441 1435 1428 1423 1423 1422 1422 1426 1430 1437 1445 1455 1463 1471 1478 1484 1489 1493 1497
1551 1542 1525 1522 1529 1528 1528 1530 1529 1527 1508 1508 1484 1469 1458 1457 1464 1468 1465 1463 1462 1460 1455 1449 1442 1436 1431 1422 1416 1415 1415 1417 1416 1419 1428 1437 1445 1453 1460 1469 1476 1481 1487 1491
1555 1545 1529 1530 1529 1528 1533 1535 1534 1530 1523 1503 1477 1472 1464 1462 1473 1469 1465 1462 1459 1455 1450 1445 1439 1434 1429 1421 1412 1409 1411 1411 1414 1415 1418 1425 1434 1445 1454 1462 1466 1472 1479 1483
1558 1555 1535 1535 1536 1536 1535 1537 1536 1530 1522 1513 1494 1472 1477 1476 1477 1474 1469 1462 1460 1457 1452 1446 1441 1436 1428 1421 1411 1405 1405 1406 1407 1412 1415 1417 1424 1435 1446 1453 1459 1465 1471 1475
1562 1556 1543 1537 1535 1531 1536 1541 1545 1553 1538 1532 1534 1516 1491 1483 1477 1474 1464 1463 1455 1453 1449 1443 1437 1431 1426 1416 1409 1406 1402 1401 1402 1405 1409 1413 1419 1427 1436 1443 1451 1458 1462 1468
1565 1560 1551 1526 1532 1530 1539 1543 1545 1543 1540 1529 1526 1499 1490 1475 1477 1477 1470 1463 1453 1441 1430 1437 1433 1427 1424 1413 1408 1404 1401 1399 1398 1400 1402 1407 1412 1419 1426 1435 1443 1450 1455 1461
1562 1558 1555 1551 1543 1543 1542 1541 1540 1537 1533 1521 1514 1498 1491 1482 1476 1475 1471 1464 1455 1449 1445 1436 1425 1416 1409 1410 1406 1401 1398 1396 1395 1395 1396 1398 1404 1412 1420 1428 1436 1442 1449 1454
1562 1557 1551 1549 1548 1544 1538 1537 1528 1525 1519 1518 1500 1497 1487 1483 1484 1472 1466 1461 1453 1443 1439 1435 1426 1423 1418 1414 1404 1399 1396 1391 1389 1388 1390 1393 1399 1407 1416 1422 1429 1436 1442 1448
1559 1553 1549 1547 1543 1536 1533 1524 1518 1514 1506 1497 1491 1489 1486 1483 1474 1467 1463 1454 1447 1441 1433 1427 1419 1413 1405 1404 1400 1394 1391 1387 1380 1380 1382 1388 1393 1399 1407 1414 1422 1428 1436 1442
1558 1551 1547 1539 1534 1532 1529 1509 1506 1502 1497 1492 1490 1484 1484 1477 1467 1461 1454 1449 1441 1435 1426 1420 1414 1409 1399 1396 1391 1389 1382 1375 1373 1373 1374 1378 1384 1391 1398 1407 1415 1421 1427 1435
1548 1547 1544 1535 1535 1530 1507 1498 1500 1497 1489 1487 1483 1483 1482 1477 1462 1457 1451 1443 1437 1431 1422 1413 1406 1399 1393 1390 1380 1380 1376 1367 1365 1365 1366 1369 1374 1382 1390 1398 1406 1415 1421 1427
1539 1543 1542 1539 1529 1513 1504 1495 1495 1493 1480 1483 1483 1478 1470 1464 1459 1445 1445 1441 1436 1425 1417 1409 1402 1395 1390 1384 1379 1374 1364 1359 1356 1355 1356 1359 1364 1372 1381 1388 1396 1405 1412 1419
1534 1536 1536 1529 1530 1521 1485 1489 1491 1490 1480 1477 1476 1471 1465 1459 1455 1432 1437 1433 1425 1419 1411 1402 1394 1388 1384 1379 1372 1365 1354 1351 1346 1345 1349 1352 1356 1363 1372 1382 1390 1399 1409 1417
1533 1532 1532 1523 1520 1504 1489 1487 1487 1491 1476 1470 1471 1467 1460 1455 1452 1433 1432 1424 1418 1411 1403 1394 1385 1377 1372 1367 1359 1347 1339 1336 1337 1338 1341 1344 1348 1355 1366 1377 1385 1395 1403 1412
1532 1532 1526 1521 1520 1507 1482 1482 1491 1483 1471 1470 1463 1458 1454 1446 1438 1429 1424 1419 1412 1404 1396 1388 1378 1372 1368 1361 1351 1338 1328 1325 1324 1326 1330 1336 1342 1351 1360 1371 1380 1390 1398 1407
1524 1516 1513 1512 1497 1481 1479 1481 1477 1475 1471 1463 1459 1450 1447 1439 1429 1423 1415 1410 1405 1397 1390 1383 1374 1365 1359 1352 1344 1333 1323 1317 1313 1317 1320 1329 1338 1348 1355 1366 1376 1385 1394 1402
1511 1509 1507 1505 1474 1480 1476 1473 1472 1468 1464 1458 1451 1445 1438 1433 1423 1416 1409 1403 1396 1390 1383 1376 1369 1361 1350 1341 1335 1326 1313 1307 1307 1313 1320 1327 1333 1342 1354 1365 1374 1382 1390 1398
1504 1505 1495 1486 1478 1473 1470 1468 1466 1460 1457 1451 1443 1439 1432 1426 1416 1412 1403 1397 1391 1383 1377 1371 1365 1357 1348 1340 1330 1318 1309 1310 1312 1316 1319 1325 1328 1343 1353 1364 1373 1382 1391 1397
1493 1489 1487 1476 1475 1474 1466 1463 1460 1456 1448 1443 1437 1424 1420 1421 1412 1405 1396 1391 1385 1378 1372 1367 1361 1355 1345 1337 1329 1322 1316 1313 1313 1314 1319 1324 1328 1343 1353 1363 1373 1385 1391 1396